"TOA5","AWS1","CR1000","7964","CR1000.Std.14","CPU:AWS1_114.CR1","64363","TBL110"
"TIMESTAMP","RECORD","Wind_spd_WVc(1)","Wind_spd_WVc(2)","Air_Temp_Avg","Humidity_Avg","SW_upper_Wm2_Avg","Rain_Tot","Press_Avg","Issui_Tot","Depth_cm","SR50A_Raw","Quality","Ground_Temp_Avg(1)","Ground_Temp_Avg(2)","SW_lower_Wm2_Avg","Albedo_Avg","SWC_per(1)","SWC_per(2)","Period(1)","Period(2)"
"TS","RN","","","","","","","","","","","","","","","","","","",""
"","","WVc","WVc","Avg","Avg","Avg","Tot","Avg","Tot","Smp","Smp","Smp","Avg","Avg","Avg","Avg","Smp","Smp","Smp","Smp"
"2018-08-13 00:00:00",353581,0,0,18.32,100,0.231966,0,868.6661,0,-0.591,3.084,229,22.68,22.32,0.9098006,3.688,40.93,43.89,30.95,31.74
"2018-08-13 00:10:00",353582,0.144,113,18.31,100,0.07470091,0,868.624,0,-0.027,3.079,240,22.71,22.26,0.974245,1.382,40.93,43.84,30.95,31.72
"2018-08-13 00:20:00",353583,0.067,165,18.34,100,0,0,868.4302,0,-1.027,3.088,200,22.61,22.25,1.076597,0,40.93,43.84,30.95,31.72
"2018-08-13 00:30:00",353584,0.206,103,18.47,100,0.1258121,0,868.4176,0,-0.94,3.086,201,22.59,22.25,1.277512,2.925,40.88,43.84,30.94,31.72
"2018-08-13 00:40:00",353585,0.034,55.85,18.86,100,0.231966,0,868.5439,0,-1.21,3.087,197,22.6,22.25,1.504962,6.283,40.88,43.84,30.94,31.72
"2018-08-13 00:50:00",353586,0.038,173,19.13,100,0.3617097,0,868.6113,0,-1.145,3.085,200,22.49,22.25,1.656595,5.185,40.88,43.89,30.94,31.74
"2018-08-13 01:00:00",353587,0.06,76.97,19.04,100,0.2358976,0,868.5987,0,-0.946,3.084,200,22.47,22.25,1.171368,4.966,40.88,43.89,30.94,31.74
"2018-08-13 01:10:00",353588,0,0,18.98,100,0.2358976,0,868.6155,0,-0.143,3.076,212,22.51,22.25,0.99699,4.226,40.83,43.89,30.92,31.74
"2018-08-13 01:20:00",353589,0.036,356,19.27,97.8,0.5936756,0,868.5987,0,0.815,3.064,240,22.48,22.25,1.67555,3.219,40.83,43.89,30.92,31.74
"2018-08-13 01:30:00",353590,0,0,19.43,95.5,0.495385,0,868.6451,0,-0.022,3.073,216,22.39,22.26,1.448099,2.962,40.83,43.89,30.92,31.74
"2018-08-13 01:40:00",353591,0,0,19.26,98.5,0.2909404,0,868.605,0,0.374,3.071,222,22.42,22.28,1.050062,3.768,40.88,43.94,30.94,31.75
"2018-08-13 01:50:00",353592,0,0,18.93,100,0.09829067,0,868.5524,0,0.365,3.072,223,22.42,22.29,0.6103247,1.205,40.78,43.94,30.91,31.75
"2018-08-13 02:00:00",353593,0,0,18.88,100,0,0,868.4428,0,0.701,3.069,227,22.43,22.29,0.5307139,0,40.78,43.94,30.91,31.75
"2018-08-13 02:10:00",353594,0,0,19.02,100,0.1808527,0,868.4955,0,0.535,3.069,224,22.41,22.27,0.8946266,3.118,40.78,43.94,30.91,31.75
"2018-08-13 02:20:00",353595,0.07,303.5,19.24,98.5,0.5425615,0,868.5734,0,0.98,3.064,222,22.35,22.22,1.338157,3.21,40.78,43.94,30.91,31.75
"2018-08-13 02:30:00",353596,0.001,306.9,19.33,96.4,0.5386314,0,868.5966,0,0.176,3.072,204,22.34,22.19,1.440514,3.228,40.78,43.94,30.91,31.75
"2018-08-13 02:40:00",353597,0,0,19.08,100,0.003931622,0,868.6219,0,0.421,3.071,208,22.33,22.16,0.8415652,0.08,40.78,43.94,30.91,31.75
"2018-08-13 02:50:00",353598,0.016,195.8,18.89,100,0,0,868.5608,0,0.573,3.07,213,22.33,22.16,0.5458804,0,40.78,43.99,30.91,31.77
"2018-08-13 03:00:00",353599,0.062,190.6,18.8,100,0,0,868.605,0,0.516,3.071,209,22.34,22.16,0.3449661,0,40.73,43.99,30.9,31.77
"2018-08-13 03:10:00",353600,0.052,189.8,18.85,100,0,0,868.6682,0,0.295,3.072,209,22.35,22.16,0.6103247,0,40.78,43.99,30.91,31.77
"2018-08-13 03:20:00",353601,0,0,19.03,100,0,0,868.6703,0,0.327,3.071,209,22.27,22.18,0.9514999,0,40.73,43.99,30.9,31.77
"2018-08-13 03:30:00",353602,0.046,81.5,19.11,99.5,0.1415386,0,868.6703,0,0.661,3.068,224,22.25,22.2,1.197904,3.15,40.73,43.99,30.9,31.77
"2018-08-13 03:40:00",353603,0,0,18.88,100,0,0,868.6703,0,0.803,3.068,224,22.25,22.19,0.716468,0,40.73,43.99,30.9,31.77
"2018-08-13 03:50:00",353604,0,0,18.83,100,0.003931627,0,868.6703,0,0.756,3.068,224,22.25,22.17,0.7809123,0.08,40.73,43.99,30.9,31.77
"2018-08-13 04:00:00",353605,0,0,18.83,100,0,0,868.6703,0,0.873,3.068,223,22.25,22.12,0.8529381,0,40.68,44.04,30.88,31.78
"2018-08-13 04:10:00",353606,0,0,18.72,100,0,0,868.6703,0,0.803,3.068,222,22.26,22.08,0.7013047,0,40.68,43.99,30.88,31.77
"2018-08-13 04:20:00",353607,0,0,18.83,99.7,0.07863254,0,868.6703,0,0.708,3.068,209,22.27,22.07,0.9818266,1.607,40.68,44.04,30.88,31.78
"2018-08-13 04:30:00",353608,0,0,18.78,100,0.02358976,0,868.6746,0,0.84,3.069,223,22.2,22.07,0.8453565,0.482,40.68,44.04,30.88,31.78
"2018-08-13 04:40:00",353609,0,0,18.55,100,0,0,868.803,0,0.555,3.072,213,22.15,22.07,0.5420896,0,40.68,44.04,30.88,31.78
"2018-08-13 04:50:00",353610,0,0,18.52,100,0,0,868.822,0,0.531,3.072,218,22.12,22.08,0.602743,0,40.68,44.04,30.88,31.78
"2018-08-13 05:00:00",353611,0.063,213.7,18.49,100,0.08256416,0,868.6787,0,0.428,3.073,207,22.14,22.1,0.6823505,1.012,40.63,44.04,30.87,31.78
"2018-08-13 05:10:00",353612,0.012,217.1,18.85,100,1.431112,0,868.8388,0,0.04,3.074,198,22.16,22.11,1.345747,1.222,40.63,44.04,30.87,31.78
"2018-08-13 05:20:00",353613,0.02,213.1,19,100,3.998464,0,868.8768,0,0.253,3.074,202,22.16,22.12,1.391237,0.377,40.63,44.04,30.87,31.78
"2018-08-13 05:30:00",353614,0.123,196.8,18.64,100,7.025817,0,868.763,0,0.333,3.073,210,22.17,22.11,1.235813,0.178,40.58,44.04,30.86,31.78
"2018-08-13 05:40:00",353615,0.082,190.4,18.71,100,14.8183,0,868.8009,0,0.619,3.07,218,22.07,22.11,2.35411,0.16,40.58,44.09,30.86,31.79
"2018-08-13 05:50:00",353616,0,0,19.22,100,23.21626,0,868.7103,0,0.505,3.067,222,22.04,22.1,3.862862,0.166,40.63,44.09,30.87,31.79
"2018-08-13 06:00:00",353617,0.005,1.531,19.42,100,28.74412,0,868.9041,0,0.67,3.067,228,22.06,22.06,4.276063,0.15,40.63,44.09,30.87,31.79
"2018-08-13 06:10:00",353618,0.151,76.9,19.14,100,51.80311,0,868.782,0,0.812,3.067,228,22.07,22.06,7.111609,0.138,40.58,44.09,30.86,31.79
"2018-08-13 06:20:00",353619,0.055,2.555,19.16,100,68.2727,0,868.6829,0,1.517,3.057,240,22.07,22.06,8.995654,0.131,40.58,44.09,30.86,31.79
"2018-08-13 06:30:00",353620,0.219,312.6,19.83,99.4,69.77457,0,868.8599,0,0.984,3.061,230,22.07,22.05,10.10637,0.145,40.58,44.04,30.86,31.78
"2018-08-13 06:40:00",353621,0.087,299.2,19.67,100,58.65201,0,868.923,0,0.966,3.063,224,22.07,22,7.987292,0.136,40.58,44.09,30.86,31.79
"2018-08-13 06:50:00",353622,0.023,295.3,19.51,99.8,62.20227,0,869.0095,0,0.641,3.065,216,22.07,21.99,8.169252,0.131,40.58,44.15,30.86,31.81
"2018-08-13 07:00:00",353623,0,0,19.58,100,65.56381,0,869.0916,0,1.333,3.059,242,22.07,21.99,8.480101,0.129,40.53,44.25,30.84,31.83
"2018-08-13 07:10:00",353624,0,0,19.65,100,86.10263,0,868.9694,0,0.594,3.065,200,22.02,21.99,11.40284,0.132,40.58,44.09,30.86,31.79
"2018-08-13 07:20:00",353625,0,0,19.94,100,118.5975,0,868.923,0,0.589,3.063,212,22.02,21.99,15.79262,0.133,40.53,44.09,30.84,31.79
"2018-08-13 07:30:00",353626,0.004,3.71,20.5,95.5,150.601,0,868.923,0,0.674,3.059,218,22,21.99,20.17104,0.134,40.53,44.09,30.84,31.79
"2018-08-13 07:40:00",353627,0.12,81.6,20.89,90.1,197.3873,0,868.923,0,0.279,3.061,213,22,21.99,27.20683,0.138,40.48,44.09,30.83,31.79
"2018-08-13 07:50:00",353628,0.072,345.1,21.24,88,190.3285,0,868.923,0,-0.062,3.065,195,22.03,21.98,25.67892,0.135,40.53,44.09,30.84,31.79
"2018-08-13 08:00:00",353629,0.139,77.26,21.12,89.6,251.3185,0,868.923,0,0.103,3.063,196,22.01,21.97,32.90685,0.132,40.53,44.09,30.84,31.79
"2018-08-13 08:10:00",353630,0.114,138.7,21.24,92.5,177.6197,0,868.9189,0,0.069,3.062,184,22.01,21.95,23.11885,0.13,40.48,44.09,30.83,31.79
"2018-08-13 08:20:00",353631,0.261,338,21.3,90.5,252.3084,0,868.9694,0,-1.521,3.078,188,22,21.91,34.16796,0.135,40.48,44.09,30.83,31.79
"2018-08-13 08:30:00",353632,0.434,347.6,21,90.4,252.0583,0,869.0431,0,-1.341,3.077,187,21.99,21.89,34.85316,0.138,40.48,44.09,30.83,31.79
"2018-08-13 08:40:00",353633,0.159,303,21.27,89,237.9594,0,869.1505,0,-1.674,3.078,185,21.99,21.85,32.82398,0.138,40.48,44.09,30.83,31.79
"2018-08-13 08:50:00",353634,0.052,104,21.62,89.3,275.4667,0,869.1569,0,-0.185,3.063,188,21.97,21.81,36.35185,0.132,40.48,44.09,30.83,31.79
"2018-08-13 09:00:00",353635,0.208,38.59,21.65,90.6,278.4571,0,869.1758,0,0.377,3.056,213,21.92,21.81,38.50129,0.138,40.43,44.09,30.82,31.79
"2018-08-13 09:10:00",353636,0.01,146.2,22.03,86.9,245.8606,0,869.2032,0,0.54,3.054,215,21.91,21.8,32.64098,0.133,40.43,44.09,30.82,31.79
"2018-08-13 09:20:00",353637,0.089,96.4,21.95,85.4,331.143,0,869.1843,0,-1.782,3.075,194,21.97,21.8,45.25043,0.137,40.43,44.09,30.82,31.79
"2018-08-13 09:30:00",353638,0.293,124.1,22.19,84.8,322.2144,0,869.1716,0,1.006,3.05,232,22.05,21.8,43.48781,0.135,40.43,44.09,30.82,31.79
"2018-08-13 09:40:00",353639,0.134,104.3,22.38,84.1,388.6035,0,869.1758,0,-0.515,3.061,212,22.02,21.8,52.06817,0.134,40.38,44.09,30.8,31.79
"2018-08-13 09:50:00",353640,0.613,23.83,22.8,82.3,527.0793,0,869.1758,0,0.691,3.049,214,22.06,21.8,70.43111,0.134,40.38,44.09,30.8,31.79
"2018-08-13 10:00:00",353641,0.728,2.308,22.71,81.8,409.8846,0,869.1695,0,0.265,3.054,218,22.06,21.79,57.32061,0.14,40.33,44.09,30.79,31.79
"2018-08-13 10:10:00",353642,0.234,18.92,22.91,81.6,492.006,0,869.1422,0,-1.518,3.068,187,22.1,21.76,67.44965,0.137,40.33,44.09,30.79,31.79
"2018-08-13 10:20:00",353643,0.508,14.18,23.11,78.1,485.9393,0,869.1295,0,-1.658,3.07,198,22.09,21.72,65.78291,0.135,40.33,44.09,30.79,31.79
"2018-08-13 10:30:00",353644,0.624,21.81,23.29,77.68,557.9318,0,869.0958,0,-1.406,3.066,200,22.15,21.71,76.1833,0.136,40.33,44.09,30.79,31.79
"2018-08-13 10:40:00",353645,0.317,351.5,23.21,78.16,422.8828,0,868.9378,0,-1.881,3.071,190,22.16,21.71,56.72924,0.134,40.28,44.09,30.78,31.79
"2018-08-13 10:50:00",353646,0.41,16,23.09,79.31,351.6313,0,868.923,0,1.435,3.041,217,22.18,21.7,47.60205,0.135,40.28,44.09,30.78,31.79
"2018-08-13 11:00:00",353647,0.1,354,22.61,84.9,282.4606,0,868.9294,0,1.566,3.042,201,22.22,21.67,38.29312,0.136,40.28,44.09,30.78,31.79
"2018-08-13 11:10:00",353648,0.025,300.7,22.38,84.1,312.0184,0,868.921,0,1.144,3.046,199,22.23,21.66,42.705,0.137,40.28,44.09,30.78,31.79
"2018-08-13 11:20:00",353649,0.122,355.5,22.67,79.09,314.6726,0,868.8915,0,1.359,3.043,200,22.33,21.67,43.49507,0.138,40.28,44.04,30.78,31.78
"2018-08-13 11:30:00",353650,0.062,346.8,22.76,79.38,377.1998,0,868.8599,0,0.777,3.047,196,22.35,21.68,54.08881,0.143,40.28,44.09,30.78,31.79
"2018-08-13 11:40:00",353651,0.248,321.7,23.06,78.77,478.8717,0,868.7293,0,0.297,3.05,198,22.41,21.68,68.52757,0.143,40.23,44.09,30.76,31.79
"2018-08-13 11:50:00",353652,0.309,6.515,23.48,77.99,505.6009,0,868.664,0,0.519,3.047,226,22.45,21.68,73.07239,0.144,40.23,44.09,30.76,31.79
"2018-08-13 12:00:00",353653,0.297,34.51,23.58,73.66,560.2929,0,868.4766,0,-0.664,3.057,197,22.49,21.66,81.63718,0.146,40.23,44.04,30.76,31.78
"2018-08-13 12:10:00",353654,0.213,334.6,23.92,71.54,484.4069,0,868.6408,0,1.017,3.04,235,22.52,21.65,69.82332,0.144,40.18,44.04,30.75,31.78
"2018-08-13 12:20:00",353655,0.578,2.699,23.66,70.81,337.7021,0,868.4218,0,-1.028,3.061,204,22.57,21.66,49.38902,0.145,40.18,44.04,30.75,31.78
"2018-08-13 12:30:00",353656,0.303,269.3,23.91,69.95,568.2313,0,868.4176,0,0.349,3.046,211,22.57,21.65,82.58971,0.144,40.18,44.04,30.75,31.78
"2018-08-13 12:40:00",353657,0.667,37.12,23.79,70.64,334.7278,0,868.4155,0,1.532,3.036,210,22.62,21.65,45.92019,0.137,40.13,44.04,30.73,31.78
"2018-08-13 12:50:00",353658,0.391,355.3,23.63,73.86,377.9604,0,868.3671,0,-0.027,3.051,215,22.66,21.66,52.586,0.138,40.13,44.04,30.73,31.78
"2018-08-13 13:00:00",353659,0.385,359.3,23.81,75.73,393.7119,0,868.2048,0,0.618,3.043,235,22.74,21.65,54.95055,0.139,40.08,44.04,30.72,31.78
"2018-08-13 13:10:00",353660,0.194,285.9,24.04,75.84,455.7972,0,868.2196,0,-0.694,3.056,176,22.74,21.64,62.55476,0.136,40.08,44.04,30.72,31.78
"2018-08-13 13:20:00",353661,0.178,283.3,23.66,78.51,195.0478,0,868.405,0,1.415,3.038,201,22.82,21.65,20.78473,0.101,40.08,44.04,30.72,31.78
"2018-08-13 13:30:00",353662,0.19,0.136,22.96,87.6,59.23384,0,868.2028,0,1.752,3.039,195,22.85,21.67,2.725065,0.045,40.08,44.09,30.72,31.79
"2018-08-13 13:40:00",353663,0.129,41.36,22.46,98.5,40.51155,0,868.1711,0,1.544,3.043,201,22.9,21.71,1.527414,0.037,40.08,44.04,30.72,31.78
"2018-08-13 13:50:00",353664,0.516,68.12,21.87,100,38.50389,0,868.2617,0,1.28,3.05,201,22.94,21.72,3.024586,0.078,40.03,44.04,30.71,31.78
"2018-08-13 14:00:00",353665,0.505,134.2,20.91,100,39.89282,0,868.4028,0,1.121,3.056,202,22.98,21.73,3.597036,0.083,40.03,44.04,30.71,31.78
"2018-08-13 14:10:00",353666,0.343,144.3,20.35,100,52.62365,2.5,868.4176,0,-0.973,3.078,195,23.05,21.74,5.99652,0.113,40.08,44.04,30.72,31.78
"2018-08-13 14:20:00",353667,0.541,151.7,20.04,100,41.5886,7,868.407,0,-0.557,3.076,206,23.03,21.76,4.362823,0.104,48.81,44.93,33,32.01
"2018-08-13 14:30:00",353668,0.43,139.5,19.76,100,26.51337,0.5,868.4176,0,-0.228,3.073,206,23.07,21.78,3.240981,0.122,48.27,46.08,32.86,32.31
"2018-08-13 14:40:00",353669,0.25,133.6,19.71,100,106.4807,0.5,868.4176,0,-0.089,3.073,200,23.16,21.79,13.059,0.124,47.52,46.82,32.67,32.5
"2018-08-13 14:50:00",353670,0.122,127,19.82,100,281.7083,0,868.5397,0,-0.078,3.069,202,23.18,21.78,35.0116,0.125,47.14,47.14,32.58,32.58
"2018-08-13 15:00:00",353671,0.329,350.3,20.36,100,137.4014,0,868.6619,0,0.033,3.067,200,23.17,21.77,15.86452,0.116,45.24,47.36,32.09,32.63
"2018-08-13 15:10:00",353672,0.558,77.28,20.2,100,73.2893,0.5,868.822,0,-0.848,3.078,197,23.15,21.87,8.415639,0.114,44.93,47.57,32.01,32.69
"2018-08-13 15:20:00",353673,0.315,136.6,19.86,100,43.53882,3,868.8894,0,0.617,3.065,224,23.05,21.89,4.579329,0.106,45.61,47.79,32.19,32.74
"2018-08-13 15:30:00",353674,0.736,124.6,19.63,100,25.68925,12,868.9104,0,-0.539,3.078,195,23.07,21.9,2.744565,0.107,49.84,50.94,33.26,33.53
"2018-08-13 15:40:00",353675,0.375,73.82,19.34,100,25.59489,11,869.0052,0,-0.159,3.075,196,23.09,21.93,2.551233,0.099,51.38,61.76,33.64,36.08
"2018-08-13 15:50:00",353676,0.281,166.9,19.23,100,57.36243,1,868.9294,0,-0.422,3.078,192,23.08,22.05,5.989522,0.105,50.61,60.56,33.45,35.81
"2018-08-13 16:00:00",353677,0.372,83.9,19.31,100,32.65609,2,868.9315,0,-0.38,3.076,212,23.01,22.07,3.76051,0.115,49.95,57.45,33.28,35.09
"2018-08-13 16:10:00",353678,0.219,122.5,19.52,100,69.6409,0.5,868.923,0,-0.714,3.079,184,22.94,22.13,7.820496,0.112,49.68,56.81,33.22,34.94
"2018-08-13 16:20:00",353679,0,0,19.53,100,59.1238,0,868.9125,0,-1.669,3.088,189,22.85,22.16,6.387559,0.108,48.97,56.06,33.04,34.76
"2018-08-13 16:30:00",353680,0.053,32.3,19.56,100,49.95502,1,868.8599,0,-0.943,3.081,187,22.77,22.16,5.447406,0.109,47.52,55.6,32.67,34.65
"2018-08-13 16:40:00",353681,0.733,86.4,19.36,100,61.46629,2.5,868.8367,0,1.349,3.06,242,22.74,22.16,6.887864,0.112,48.21,55.6,32.85,34.65
"2018-08-13 16:50:00",353682,0.359,142.9,19.29,100,70.88677,0,868.7967,0,0.854,3.065,219,22.65,22.16,8.559653,0.121,48.38,55.89,32.89,34.72
"2018-08-13 17:00:00",353683,0.631,93.6,19.24,100,57.27187,0,868.9083,0,1.267,3.061,229,22.66,22.16,7.024404,0.123,47.89,55.89,32.77,34.72
"2018-08-13 17:10:00",353684,0.13,40.78,19.42,100,55.23932,0,868.7714,0,0.655,3.066,213,22.59,22.16,7.058533,0.128,47.52,55.77,32.67,34.7
"2018-08-13 17:20:00",353685,0.248,355.3,19.38,100,51.13474,0,868.8768,0,1.624,3.058,249,22.56,22.16,6.304161,0.123,47.2,55.72,32.59,34.68
"2018-08-13 17:30:00",353686,0.888,56.22,19.26,100,36.57199,0.5,868.9799,0,1.027,3.064,222,22.47,22.16,4.924296,0.135,46.93,55.6,32.52,34.65
"2018-08-13 17:40:00",353687,1.213,54.88,19.27,100,35.38071,0,868.961,0,1.276,3.06,234,22.49,22.16,5.16691,0.146,46.82,55.55,32.5,34.64
"2018-08-13 17:50:00",353688,0.517,8.7,19.83,94.7,61.91919,0,869.0726,0,0.82,3.061,218,22.46,22.16,9.401274,0.151,46.72,55.43,32.47,34.61
"2018-08-13 18:00:00",353689,0.559,41.68,20.08,90.3,100.2408,0,869.1716,0,0.81,3.062,207,22.38,22.16,14.57956,0.146,46.56,55.37,32.43,34.6
"2018-08-13 18:10:00",353690,0.183,83.7,19.89,97.9,106.378,0,869.1758,0,0.914,3.061,227,22.39,22.16,14.4355,0.136,46.56,55.32,32.43,34.59
"2018-08-13 18:20:00",353691,0.076,20.29,19.83,99.6,50.09679,0,869.1758,0,0.631,3.066,205,22.42,22.16,7.016838,0.141,46.45,55.32,32.4,34.59
"2018-08-13 18:30:00",353692,0.15,29.62,19.34,100,28.2684,0.5,869.1969,0,0.853,3.065,213,22.42,22.16,4.336717,0.154,46.4,55.26,32.39,34.57
"2018-08-13 18:40:00",353693,0.076,173.4,19.24,100,17.44463,0,869.378,0,0.797,3.066,217,22.38,22.18,3.150185,0.182,46.29,55.2,32.36,34.56
"2018-08-13 18:50:00",353694,0,0,19.2,100,4.80838,0,869.4286,0,1.178,3.063,236,22.32,22.16,1.171368,0.284,46.29,55.15,32.36,34.55
"2018-08-13 19:00:00",353695,0.066,174,19.13,100,0.1140172,0,869.6097,0,0.741,3.067,220,22.33,22.14,0.670978,0.327,46.24,54.86,32.35,34.48
"2018-08-13 19:10:00",353696,0.04,174,19.09,100,0,0,869.6813,0,0.684,3.068,218,22.33,22.14,0.6141155,0,46.14,54.8,32.32,34.46
"2018-08-13 19:20:00",353697,0,0,19.08,100,0,0,869.6813,0,0.868,3.066,225,22.33,22.12,0.6823505,0,46.14,54.75,32.32,34.45
"2018-08-13 19:30:00",353698,0.048,173.9,19.1,100,0,0,869.8751,0,0.788,3.067,218,22.33,22.09,0.6823505,0,46.08,54.8,32.31,34.46
"2018-08-13 19:40:00",353699,0.112,173.9,19.06,100,0,0,869.9277,0,0.868,3.066,221,22.34,22.08,0.6671872,0,46.03,54.75,32.29,34.45
"2018-08-13 19:50:00",353700,0,0,19.07,100,0,0,869.934,0,0.858,3.067,221,22.3,22.07,0.6823505,0,46.03,54.75,32.29,34.45
"2018-08-13 20:00:00",353701,0.097,173.9,18.96,100,0,0,869.934,0,0.835,3.067,226,22.25,22.07,0.6823505,0,45.98,54.75,32.28,34.45
"2018-08-13 20:10:00",353702,0,0,18.88,100,0,0,869.934,0,0.882,3.067,220,22.25,22.07,0.6823505,0,45.92,54.69,32.27,34.44
"2018-08-13 20:20:00",353703,0,0,18.83,100,0,0,869.934,0,1.09,3.065,227,22.25,22.07,0.6823505,0,45.92,54.63,32.27,34.42
"2018-08-13 20:30:00",353704,0,0,18.99,100,0,0,869.934,0,1.215,3.064,236,22.25,22.08,0.9173824,0,45.87,54.63,32.25,34.42
"2018-08-13 20:40:00",353705,0,0,19.02,100,0.02752139,0,870.0499,0,0.9,3.065,221,22.25,22.1,0.6368605,0.337,45.87,54.58,32.25,34.41
"2018-08-13 20:50:00",353706,0,0,19.37,100,0,0,870.1868,0,0.599,3.067,209,22.24,22.11,1.137251,0,45.87,54.58,32.25,34.41
"2018-08-13 21:00:00",353707,0,0,19.13,100,0,0,870.1868,0,0.651,3.069,220,22.15,22.12,0.4056195,0,45.82,54.58,32.24,34.41
"2018-08-13 21:10:00",353708,0,0,19.09,100,0,0,870.1868,0,1.418,3.06,237,22.12,22.12,0.9666633,0,45.77,54.52,32.23,34.4
"2018-08-13 21:20:00",353709,0.081,305.6,19.42,100,0,0,870.1868,0,0.378,3.068,222,22.16,22.12,1.247185,0,45.82,54.58,32.24,34.41
"2018-08-13 21:30:00",353710,0.008,28.97,19.45,100,0,0,870.1868,0,0.289,3.07,219,22.15,22.12,1.034898,0,45.77,54.52,32.23,34.4
"2018-08-13 21:40:00",353711,0,0,19.29,100,0,0,870.111,0,0.209,3.071,222,22.1,22.08,1.137251,0,45.71,54.52,32.21,34.4
"2018-08-13 21:50:00",353712,0,0,19.3,100,0,0,869.9362,0,0.209,3.071,222,22.04,22.06,1.141042,0,45.71,54.52,32.21,34.4
"2018-08-13 22:00:00",353713,0,0,19.21,100,0,0,869.934,0,0.59,3.068,241,22.07,22.07,0.9325457,0,45.71,54.52,32.21,34.4
"2018-08-13 22:10:00",353714,0,0,19.06,100,0,0,869.934,0,0.351,3.071,242,22.07,22.05,0.7013047,0,45.71,54.46,32.21,34.38
"2018-08-13 22:20:00",353715,0,0,19.14,100,0,0,869.934,0,0.176,3.072,219,22.08,22,0.8150299,0,45.66,54.46,32.2,34.38
"2018-08-13 22:30:00",353716,0,0,19.04,100,0,0,869.934,0,0.365,3.072,234,22.07,21.99,0.4321553,0,45.66,54.46,32.2,34.38
"2018-08-13 22:40:00",353717,0,0,18.92,100,0,0,869.934,0,0.661,3.068,237,22.03,21.99,0.4928087,0,45.66,54.46,32.2,34.38
"2018-08-13 22:50:00",353718,0,41.36,19.1,100,0,0,869.934,0,0.398,3.071,223,22,21.99,0.8529381,0,45.66,54.41,32.2,34.37
"2018-08-13 23:00:00",353719,0.049,44.65,18.85,100,0,0,869.934,0,0.93,3.067,251,21.99,22.03,0.6823505,0,45.66,54.41,32.2,34.37
"2018-08-13 23:10:00",353720,0,0,18.8,100,0,0,869.934,0,0.563,3.071,238,22.01,22.07,0.6823505,0,45.61,54.41,32.19,34.37
"2018-08-13 23:20:00",353721,0,0,18.64,100,0,0,869.913,0,0.944,3.068,257,21.97,22.07,0.6823505,0,45.61,54.35,32.19,34.36
"2018-08-13 23:30:00",353722,0.048,175.2,18.56,100,0,0,869.7444,0,1.198,3.066,284,21.9,22.07,0.6823505,0,45.61,54.35,32.19,34.36
"2018-08-13 23:40:00",353723,0.285,187.1,18.48,100,0,0,869.6855,0,0.785,3.07,268,21.9,22.07,0.6823505,0,45.56,54.35,32.17,34.36
"2018-08-13 23:50:00",353724,0,0,18.56,100,0,0,869.6644,0,0.176,3.075,252,21.9,22.03,0.9590788,0,45.56,54.35,32.17,34.36
